owner,sensor,date,latitude,longitude,vertical_datum,sea_water_temperature,qcFlag 
WAVCIS,ioos:station:WAVCIS:CSI16:1,2009-09-01T21:00:00Z,29.4012,-89.0355,10.0,29.292,11111222 
WAVCIS,ioos:station:WAVCIS:CSI16:1,2009-09-01T21:15:00Z,29.4012,-89.0355,10.0,29.378,11111222 
WAVCIS,ioos:station:WAVCIS:CSI16:1,2009-09-01T21:30:00Z,29.4012,-89.0355,10.0,29.228,11111222 
WAVCIS,ioos:station:WAVCIS:CSI16:1,2009-09-01T21:45:00Z,29.4012,-89.0355,10.0,29.161,11111222 
WAVCIS,ioos:station:WAVCIS:CSI16:1,2009-09-01T22:00:00Z,29.4012,-89.0355,10.0,29.358,11111222 
WAVCIS,ioos:station:WAVCIS:CSI16:1,2009-09-01T22:15:00Z,29.4012,-89.0355,10.0,29.137,11111222 
WAVCIS,ioos:station:WAVCIS:CSI16:1,2009-09-01T22:30:00Z,29.4012,-89.0355,10.0,29.179,11111222 
WAVCIS,ioos:station:WAVCIS:CSI16:1,2009-09-01T22:45:00Z,29.4012,-89.0355,10.0,29.194,11111222 
WAVCIS,ioos:station:WAVCIS:CSI16:1,2009-09-01T23:00:00Z,29.4012,-89.0355,10.0,29.191,11111222 
WAVCIS,ioos:station:WAVCIS:CSI16:1,2009-09-01T23:15:00Z,29.4012,-89.0355,10.0,29.182,11111222 
WAVCIS,ioos:station:WAVCIS:CSI16:1,2009-09-01T23:30:00Z,29.4012,-89.0355,10.0,29.159,11111222 
WAVCIS,ioos:station:WAVCIS:CSI16:1,2009-09-01T23:45:00Z,29.4012,-89.0355,10.0,29.119,11111222 
WAVCIS,ioos:station:WAVCIS:CSI16:1,2009-09-02T00:00:00Z,29.4012,-89.0355,10.0,29.087,11111222 
WAVCIS,ioos:station:WAVCIS:CSI16:1,2009-09-02T00:15:00Z,29.4012,-89.0355,10.0,29.073,11111222 
WAVCIS,ioos:station:WAVCIS:CSI16:1,2009-09-02T00:30:00Z,29.4012,-89.0355,10.0,29.012,11111222 
WAVCIS,ioos:station:WAVCIS:CSI16:1,2009-09-02T00:45:00Z,29.4012,-89.0355,10.0,29.067,11111222 
WAVCIS,ioos:station:WAVCIS:CSI16:1,2009-09-02T01:00:00Z,29.4012,-89.0355,10.0,29.242,11111222 
WAVCIS,ioos:station:WAVCIS:CSI16:1,2009-09-02T01:15:00Z,29.4012,-89.0355,10.0,29.365,11111222 
WAVCIS,ioos:station:WAVCIS:CSI16:1,2009-09-02T01:30:00Z,29.4012,-89.0355,10.0,29.338,11111222 
WAVCIS,ioos:station:WAVCIS:CSI16:1,2009-09-02T01:45:00Z,29.4012,-89.0355,10.0,29.298,11111222 
WAVCIS,ioos:station:WAVCIS:CSI16:1,2009-09-02T02:00:00Z,29.4012,-89.0355,10.0,29.28,11111222 
WAVCIS,ioos:station:WAVCIS:CSI16:1,2009-09-02T02:15:00Z,29.4012,-89.0355,10.0,29.235,11111222 
WAVCIS,ioos:station:WAVCIS:CSI16:1,2009-09-02T02:30:00Z,29.4012,-89.0355,10.0,29.281,11111222 
WAVCIS,ioos:station:WAVCIS:CSI16:1,2009-09-02T02:45:00Z,29.4012,-89.0355,10.0,29.33,11111222 
WAVCIS,ioos:station:WAVCIS:CSI16:1,2009-09-02T03:00:00Z,29.4012,-89.0355,10.0,29.272,11111222 
WAVCIS,ioos:station:WAVCIS:CSI16:1,2009-09-02T03:15:00Z,29.4012,-89.0355,10.0,29.306,11111222 
WAVCIS,ioos:station:WAVCIS:CSI16:1,2009-09-02T03:30:00Z,29.4012,-89.0355,10.0,29.284,11111222 
WAVCIS,ioos:station:WAVCIS:CSI16:1,2009-09-02T03:45:00Z,29.4012,-89.0355,10.0,29.382,11111222 
WAVCIS,ioos:station:WAVCIS:CSI16:1,2009-09-02T04:00:00Z,29.4012,-89.0355,10.0,29.304,11111222 
WAVCIS,ioos:station:WAVCIS:CSI16:1,2009-09-02T04:15:00Z,29.4012,-89.0355,10.0,29.23,11111222 
WAVCIS,ioos:station:WAVCIS:CSI16:1,2009-09-02T04:30:00Z,29.4012,-89.0355,10.0,29.23,11111222 
WAVCIS,ioos:station:WAVCIS:CSI16:1,2009-09-02T04:45:00Z,29.4012,-89.0355,10.0,29.153,11111222 
WAVCIS,ioos:station:WAVCIS:CSI16:1,2009-09-02T05:00:00Z,29.4012,-89.0355,10.0,29.057,11111222 
WAVCIS,ioos:station:WAVCIS:CSI16:1,2009-09-02T05:15:00Z,29.4012,-89.0355,10.0,29.077,11111222 
WAVCIS,ioos:station:WAVCIS:CSI16:1,2009-09-02T05:30:00Z,29.4012,-89.0355,10.0,29.003,11111222 
WAVCIS,ioos:station:WAVCIS:CSI16:1,2009-09-02T05:45:00Z,29.4012,-89.0355,10.0,29.004,11111222 
WAVCIS,ioos:station:WAVCIS:CSI16:1,2009-09-02T06:00:00Z,29.4012,-89.0355,10.0,29.017,11111222 
WAVCIS,ioos:station:WAVCIS:CSI16:1,2009-09-02T06:15:00Z,29.4012,-89.0355,10.0,29.032,11111222 
WAVCIS,ioos:station:WAVCIS:CSI16:1,2009-09-02T06:30:00Z,29.4012,-89.0355,10.0,29.002,11111222 
WAVCIS,ioos:station:WAVCIS:CSI16:1,2009-09-02T06:45:00Z,29.4012,-89.0355,10.0,28.972,11111222 
WAVCIS,ioos:station:WAVCIS:CSI16:1,2009-09-02T07:00:00Z,29.4012,-89.0355,10.0,28.972,11111222 
WAVCIS,ioos:station:WAVCIS:CSI16:1,2009-09-02T07:15:00Z,29.4012,-89.0355,10.0,28.985,11111222 
WAVCIS,ioos:station:WAVCIS:CSI16:1,2009-09-02T07:30:00Z,29.4012,-89.0355,10.0,28.983,11111222 
WAVCIS,ioos:station:WAVCIS:CSI16:1,2009-09-02T07:45:00Z,29.4012,-89.0355,10.0,28.989,11111222 
WAVCIS,ioos:station:WAVCIS:CSI16:1,2009-09-02T08:00:00Z,29.4012,-89.0355,10.0,28.972,11111222 
WAVCIS,ioos:station:WAVCIS:CSI16:1,2009-09-02T08:15:00Z,29.4012,-89.0355,10.0,28.953,11111222 
WAVCIS,ioos:station:WAVCIS:CSI16:1,2009-09-02T08:30:00Z,29.4012,-89.0355,10.0,28.972,11111222 
WAVCIS,ioos:station:WAVCIS:CSI16:1,2009-09-02T08:45:00Z,29.4012,-89.0355,10.0,28.971,11111222 
WAVCIS,ioos:station:WAVCIS:CSI16:1,2009-09-02T09:00:00Z,29.4012,-89.0355,10.0,28.935,11111222 
WAVCIS,ioos:station:WAVCIS:CSI16:1,2009-09-02T09:15:00Z,29.4012,-89.0355,10.0,28.899,11111222 
WAVCIS,ioos:station:WAVCIS:CSI16:1,2009-09-02T09:30:00Z,29.4012,-89.0355,10.0,28.896,11111222 
WAVCIS,ioos:station:WAVCIS:CSI16:1,2009-09-02T09:45:00Z,29.4012,-89.0355,10.0,28.831,11111222 
WAVCIS,ioos:station:WAVCIS:CSI16:1,2009-09-02T10:00:00Z,29.4012,-89.0355,10.0,28.799,11111222 
WAVCIS,ioos:station:WAVCIS:CSI16:1,2009-09-02T10:15:00Z,29.4012,-89.0355,10.0,28.847,11111222 
WAVCIS,ioos:station:WAVCIS:CSI16:1,2009-09-02T10:30:00Z,29.4012,-89.0355,10.0,28.729,11111222 
WAVCIS,ioos:station:WAVCIS:CSI16:1,2009-09-02T10:45:00Z,29.4012,-89.0355,10.0,28.732,11111222 
WAVCIS,ioos:station:WAVCIS:CSI16:1,2009-09-02T11:00:00Z,29.4012,-89.0355,10.0,28.708,11111222 
WAVCIS,ioos:station:WAVCIS:CSI16:1,2009-09-02T11:15:00Z,29.4012,-89.0355,10.0,28.679,11111222 
WAVCIS,ioos:station:WAVCIS:CSI16:1,2009-09-02T11:30:00Z,29.4012,-89.0355,10.0,28.683,11111222 
WAVCIS,ioos:station:WAVCIS:CSI16:1,2009-09-02T11:45:00Z,29.4012,-89.0355,10.0,28.644,11111222 
WAVCIS,ioos:station:WAVCIS:CSI16:1,2009-09-02T12:00:00Z,29.4012,-89.0355,10.0,28.653,11111222 
WAVCIS,ioos:station:WAVCIS:CSI16:1,2009-09-02T12:15:00Z,29.4012,-89.0355,10.0,28.641,11111222 
WAVCIS,ioos:station:WAVCIS:CSI16:1,2009-09-02T12:30:00Z,29.4012,-89.0355,10.0,28.641,11111222 
WAVCIS,ioos:station:WAVCIS:CSI16:1,2009-09-02T12:45:00Z,29.4012,-89.0355,10.0,28.606,11111222 
WAVCIS,ioos:station:WAVCIS:CSI16:1,2009-09-02T13:00:00Z,29.4012,-89.0355,10.0,28.607,11111222 
WAVCIS,ioos:station:WAVCIS:CSI16:1,2009-09-02T13:15:00Z,29.4012,-89.0355,10.0,28.611,11111222 
WAVCIS,ioos:station:WAVCIS:CSI16:1,2009-09-02T13:30:00Z,29.4012,-89.0355,10.0,28.586,11111222 
WAVCIS,ioos:station:WAVCIS:CSI16:1,2009-09-02T13:45:00Z,29.4012,-89.0355,10.0,28.586,11111222 
WAVCIS,ioos:station:WAVCIS:CSI16:1,2009-09-02T14:00:00Z,29.4012,-89.0355,10.0,28.595,11111222 
WAVCIS,ioos:station:WAVCIS:CSI16:1,2009-09-02T14:15:00Z,29.4012,-89.0355,10.0,28.572,11111222 
WAVCIS,ioos:station:WAVCIS:CSI16:1,2009-09-02T14:30:00Z,29.4012,-89.0355,10.0,28.581,11111222 
WAVCIS,ioos:station:WAVCIS:CSI16:1,2009-09-02T14:45:00Z,29.4012,-89.0355,10.0,28.57,11111222 
WAVCIS,ioos:station:WAVCIS:CSI16:1,2009-09-02T15:00:00Z,29.4012,-89.0355,10.0,28.583,11111222 
WAVCIS,ioos:station:WAVCIS:CSI16:1,2009-09-02T15:15:00Z,29.4012,-89.0355,10.0,28.597,11111222 
WAVCIS,ioos:station:WAVCIS:CSI16:1,2009-09-02T15:30:00Z,29.4012,-89.0355,10.0,28.612,11111222 
WAVCIS,ioos:station:WAVCIS:CSI16:1,2009-09-02T15:45:00Z,29.4012,-89.0355,10.0,28.618,11111222 
WAVCIS,ioos:station:WAVCIS:CSI16:1,2009-09-02T16:00:00Z,29.4012,-89.0355,10.0,28.637,11111222 
WAVCIS,ioos:station:WAVCIS:CSI16:1,2009-09-02T16:15:00Z,29.4012,-89.0355,10.0,28.665,11111222 
WAVCIS,ioos:station:WAVCIS:CSI16:1,2009-09-02T16:30:00Z,29.4012,-89.0355,10.0,28.688,11111222 
WAVCIS,ioos:station:WAVCIS:CSI16:1,2009-09-02T16:45:00Z,29.4012,-89.0355,10.0,28.699,11111222 
WAVCIS,ioos:station:WAVCIS:CSI16:1,2009-09-02T17:00:00Z,29.4012,-89.0355,10.0,28.719,11111222 
WAVCIS,ioos:station:WAVCIS:CSI16:1,2009-09-02T17:15:00Z,29.4012,-89.0355,10.0,28.727,11111222 
WAVCIS,ioos:station:WAVCIS:CSI16:1,2009-09-02T17:30:00Z,29.4012,-89.0355,10.0,28.792,11111222 
WAVCIS,ioos:station:WAVCIS:CSI16:1,2009-09-02T17:45:00Z,29.4012,-89.0355,10.0,28.793,11111222 
WAVCIS,ioos:station:WAVCIS:CSI16:1,2009-09-02T18:00:00Z,29.4012,-89.0355,10.0,28.857,11111222 
WAVCIS,ioos:station:WAVCIS:CSI16:1,2009-09-02T18:15:00Z,29.4012,-89.0355,10.0,28.875,11111222 
WAVCIS,ioos:station:WAVCIS:CSI16:1,2009-09-02T18:30:00Z,29.4012,-89.0355,10.0,28.914,11111222 
WAVCIS,ioos:station:WAVCIS:CSI16:1,2009-09-02T18:45:00Z,29.4012,-89.0355,10.0,28.942,11111222 
WAVCIS,ioos:station:WAVCIS:CSI16:1,2009-09-02T19:00:00Z,29.4012,-89.0355,10.0,28.946,11111222 
WAVCIS,ioos:station:WAVCIS:CSI16:1,2009-09-02T19:15:00Z,29.4012,-89.0355,10.0,29.007,11111222 
WAVCIS,ioos:station:WAVCIS:CSI16:1,2009-09-02T19:30:00Z,29.4012,-89.0355,10.0,29.007,11111222 
WAVCIS,ioos:station:WAVCIS:CSI16:1,2009-09-02T19:45:00Z,29.4012,-89.0355,10.0,29.017,11111222 
WAVCIS,ioos:station:WAVCIS:CSI16:1,2009-09-02T20:00:00Z,29.4012,-89.0355,10.0,29.057,11111222 
WAVCIS,ioos:station:WAVCIS:CSI16:1,2009-09-02T20:15:00Z,29.4012,-89.0355,10.0,29.102,11111222 
WAVCIS,ioos:station:WAVCIS:CSI16:1,2009-09-02T20:30:00Z,29.4012,-89.0355,10.0,29.067,11111222 
WAVCIS,ioos:station:WAVCIS:CSI16:1,2009-09-02T20:45:00Z,29.4012,-89.0355,10.0,29.142,11111222 
WAVCIS,ioos:station:WAVCIS:CSI16:1,2009-09-02T21:00:00Z,29.4012,-89.0355,10.0,29.14,11111222 
WAVCIS,ioos:station:WAVCIS:CSI16:1,2009-09-02T21:15:00Z,29.4012,-89.0355,10.0,29.121,11111222 
WAVCIS,ioos:station:WAVCIS:CSI16:1,2009-09-02T21:30:00Z,29.4012,-89.0355,10.0,29.169,11111222 
WAVCIS,ioos:station:WAVCIS:CSI16:1,2009-09-02T21:45:00Z,29.4012,-89.0355,10.0,29.153,11111222 
WAVCIS,ioos:station:WAVCIS:CSI16:1,2009-09-02T22:00:00Z,29.4012,-89.0355,10.0,29.18,11111222 
WAVCIS,ioos:station:WAVCIS:CSI16:1,2009-09-02T22:15:00Z,29.4012,-89.0355,10.0,29.168,11111222 
WAVCIS,ioos:station:WAVCIS:CSI16:1,2009-09-02T22:30:00Z,29.4012,-89.0355,10.0,29.184,11111222 
WAVCIS,ioos:station:WAVCIS:CSI16:1,2009-09-02T22:45:00Z,29.4012,-89.0355,10.0,29.166,11111222 
WAVCIS,ioos:station:WAVCIS:CSI16:1,2009-09-02T23:00:00Z,29.4012,-89.0355,10.0,29.16,11111222 
WAVCIS,ioos:station:WAVCIS:CSI16:1,2009-09-02T23:15:00Z,29.4012,-89.0355,10.0,29.143,11111222 
WAVCIS,ioos:station:WAVCIS:CSI16:1,2009-09-02T23:30:00Z,29.4012,-89.0355,10.0,29.116,11111222 
WAVCIS,ioos:station:WAVCIS:CSI16:1,2009-09-02T23:45:00Z,29.4012,-89.0355,10.0,29.105,11111222 
WAVCIS,ioos:station:WAVCIS:CSI16:1,2009-09-03T00:00:00Z,29.4012,-89.0355,10.0,29.096,11111222 
WAVCIS,ioos:station:WAVCIS:CSI16:1,2009-09-03T00:15:00Z,29.4012,-89.0355,10.0,29.107,11111222 
WAVCIS,ioos:station:WAVCIS:CSI16:1,2009-09-03T00:30:00Z,29.4012,-89.0355,10.0,29.084,11111222 
WAVCIS,ioos:station:WAVCIS:CSI16:1,2009-09-03T00:45:00Z,29.4012,-89.0355,10.0,29.066,11111222 
WAVCIS,ioos:station:WAVCIS:CSI16:1,2009-09-03T01:00:00Z,29.4012,-89.0355,10.0,29.036,11111222 
WAVCIS,ioos:station:WAVCIS:CSI16:1,2009-09-03T01:15:00Z,29.4012,-89.0355,10.0,29.006,11111222 
WAVCIS,ioos:station:WAVCIS:CSI16:1,2009-09-03T01:30:00Z,29.4012,-89.0355,10.0,28.963,11111222 
WAVCIS,ioos:station:WAVCIS:CSI16:1,2009-09-03T01:45:00Z,29.4012,-89.0355,10.0,28.928,11111222 
WAVCIS,ioos:station:WAVCIS:CSI16:1,2009-09-03T02:00:00Z,29.4012,-89.0355,10.0,28.923,11111222 
WAVCIS,ioos:station:WAVCIS:CSI16:1,2009-09-03T02:15:00Z,29.4012,-89.0355,10.0,28.875,11111222 
WAVCIS,ioos:station:WAVCIS:CSI16:1,2009-09-03T02:30:00Z,29.4012,-89.0355,10.0,28.863,11111222 
WAVCIS,ioos:station:WAVCIS:CSI16:1,2009-09-03T02:45:00Z,29.4012,-89.0355,10.0,28.865,11111222 
WAVCIS,ioos:station:WAVCIS:CSI16:1,2009-09-03T03:00:00Z,29.4012,-89.0355,10.0,28.849,11111222 
WAVCIS,ioos:station:WAVCIS:CSI16:1,2009-09-03T03:15:00Z,29.4012,-89.0355,10.0,28.817,11111222 
WAVCIS,ioos:station:WAVCIS:CSI16:1,2009-09-03T03:30:00Z,29.4012,-89.0355,10.0,28.836,11111222 
WAVCIS,ioos:station:WAVCIS:CSI16:1,2009-09-03T03:45:00Z,29.4012,-89.0355,10.0,28.807,11111222 
WAVCIS,ioos:station:WAVCIS:CSI16:1,2009-09-03T04:00:00Z,29.4012,-89.0355,10.0,28.798,11111222 
WAVCIS,ioos:station:WAVCIS:CSI16:1,2009-09-03T04:15:00Z,29.4012,-89.0355,10.0,28.803,11111222 
WAVCIS,ioos:station:WAVCIS:CSI16:1,2009-09-03T04:30:00Z,29.4012,-89.0355,10.0,28.756,11111222 
WAVCIS,ioos:station:WAVCIS:CSI16:1,2009-09-03T04:45:00Z,29.4012,-89.0355,10.0,28.717,11111222 
WAVCIS,ioos:station:WAVCIS:CSI16:1,2009-09-03T05:00:00Z,29.4012,-89.0355,10.0,28.76,11111222 
WAVCIS,ioos:station:WAVCIS:CSI16:1,2009-09-03T05:15:00Z,29.4012,-89.0355,10.0,28.778,11111222 
WAVCIS,ioos:station:WAVCIS:CSI16:1,2009-09-03T05:30:00Z,29.4012,-89.0355,10.0,28.798,11111222 
WAVCIS,ioos:station:WAVCIS:CSI16:1,2009-09-03T05:45:00Z,29.4012,-89.0355,10.0,28.827,11111222 
WAVCIS,ioos:station:WAVCIS:CSI16:1,2009-09-03T06:00:00Z,29.4012,-89.0355,10.0,28.832,11111222 
WAVCIS,ioos:station:WAVCIS:CSI16:1,2009-09-03T06:15:00Z,29.4012,-89.0355,10.0,28.822,11111222 
WAVCIS,ioos:station:WAVCIS:CSI16:1,2009-09-03T06:30:00Z,29.4012,-89.0355,10.0,28.812,11111222 
WAVCIS,ioos:station:WAVCIS:CSI16:1,2009-09-03T06:45:00Z,29.4012,-89.0355,10.0,28.826,11111222 
WAVCIS,ioos:station:WAVCIS:CSI16:1,2009-09-03T07:00:00Z,29.4012,-89.0355,10.0,28.825,11111222 
WAVCIS,ioos:station:WAVCIS:CSI16:1,2009-09-03T07:15:00Z,29.4012,-89.0355,10.0,28.836,11111222 
WAVCIS,ioos:station:WAVCIS:CSI16:1,2009-09-03T07:30:00Z,29.4012,-89.0355,10.0,28.837,11111222 
WAVCIS,ioos:station:WAVCIS:CSI16:1,2009-09-03T07:45:00Z,29.4012,-89.0355,10.0,28.827,11111222 
WAVCIS,ioos:station:WAVCIS:CSI16:1,2009-09-03T08:00:00Z,29.4012,-89.0355,10.0,28.81,11111222 
WAVCIS,ioos:station:WAVCIS:CSI16:1,2009-09-03T08:15:00Z,29.4012,-89.0355,10.0,28.79,11111222 
WAVCIS,ioos:station:WAVCIS:CSI16:1,2009-09-03T08:30:00Z,29.4012,-89.0355,10.0,28.755,11111222 
WAVCIS,ioos:station:WAVCIS:CSI16:1,2009-09-03T08:45:00Z,29.4012,-89.0355,10.0,28.742,11111222 
WAVCIS,ioos:station:WAVCIS:CSI16:1,2009-09-03T09:00:00Z,29.4012,-89.0355,10.0,28.71,11111222 
WAVCIS,ioos:station:WAVCIS:CSI16:1,2009-09-03T09:15:00Z,29.4012,-89.0355,10.0,28.698,11111222 
WAVCIS,ioos:station:WAVCIS:CSI16:1,2009-09-03T09:30:00Z,29.4012,-89.0355,10.0,28.687,11111222 
WAVCIS,ioos:station:WAVCIS:CSI16:1,2009-09-03T09:45:00Z,29.4012,-89.0355,10.0,28.668,11111222 
WAVCIS,ioos:station:WAVCIS:CSI16:1,2009-09-03T10:00:00Z,29.4012,-89.0355,10.0,28.683,11111222 
WAVCIS,ioos:station:WAVCIS:CSI16:1,2009-09-03T10:15:00Z,29.4012,-89.0355,10.0,28.747,11111222 
WAVCIS,ioos:station:WAVCIS:CSI16:1,2009-09-03T10:30:00Z,29.4012,-89.0355,10.0,28.68,11111222 
WAVCIS,ioos:station:WAVCIS:CSI16:1,2009-09-03T10:45:00Z,29.4012,-89.0355,10.0,28.659,11111222 
WAVCIS,ioos:station:WAVCIS:CSI16:1,2009-09-03T11:00:00Z,29.4012,-89.0355,10.0,28.674,11111222 
WAVCIS,ioos:station:WAVCIS:CSI16:1,2009-09-03T11:15:00Z,29.4012,-89.0355,10.0,28.66,11111222 
WAVCIS,ioos:station:WAVCIS:CSI16:1,2009-09-03T11:30:00Z,29.4012,-89.0355,10.0,28.662,11111222 
WAVCIS,ioos:station:WAVCIS:CSI16:1,2009-09-03T11:45:00Z,29.4012,-89.0355,10.0,28.666,11111222 
WAVCIS,ioos:station:WAVCIS:CSI16:1,2009-09-03T12:00:00Z,29.4012,-89.0355,10.0,28.632,11111222 
WAVCIS,ioos:station:WAVCIS:CSI16:1,2009-09-03T12:15:00Z,29.4012,-89.0355,10.0,28.606,11111222 
WAVCIS,ioos:station:WAVCIS:CSI16:1,2009-09-03T12:30:00Z,29.4012,-89.0355,10.0,28.566,11111222 
WAVCIS,ioos:station:WAVCIS:CSI16:1,2009-09-03T12:45:00Z,29.4012,-89.0355,10.0,28.56,11111222 
WAVCIS,ioos:station:WAVCIS:CSI16:1,2009-09-03T13:00:00Z,29.4012,-89.0355,10.0,28.56,11111222 
WAVCIS,ioos:station:WAVCIS:CSI16:1,2009-09-03T13:15:00Z,29.4012,-89.0355,10.0,28.564,11111222 
WAVCIS,ioos:station:WAVCIS:CSI16:1,2009-09-03T13:30:00Z,29.4012,-89.0355,10.0,28.581,11111222 
WAVCIS,ioos:station:WAVCIS:CSI16:1,2009-09-03T13:45:00Z,29.4012,-89.0355,10.0,28.581,11111222 
WAVCIS,ioos:station:WAVCIS:CSI16:1,2009-09-03T14:00:00Z,29.4012,-89.0355,10.0,28.597,11111222 
WAVCIS,ioos:station:WAVCIS:CSI16:1,2009-09-03T14:15:00Z,29.4012,-89.0355,10.0,28.604,11111222 
WAVCIS,ioos:station:WAVCIS:CSI16:1,2009-09-03T14:30:00Z,29.4012,-89.0355,10.0,28.605,11111222 
WAVCIS,ioos:station:WAVCIS:CSI16:1,2009-09-03T14:45:00Z,29.4012,-89.0355,10.0,28.626,11111222 
WAVCIS,ioos:station:WAVCIS:CSI16:1,2009-09-03T15:00:00Z,29.4012,-89.0355,10.0,28.641,11111222 
WAVCIS,ioos:station:WAVCIS:CSI16:1,2009-09-03T15:15:00Z,29.4012,-89.0355,10.0,28.663,11111222 
WAVCIS,ioos:station:WAVCIS:CSI16:1,2009-09-03T15:30:00Z,29.4012,-89.0355,10.0,28.685,11111222 
WAVCIS,ioos:station:WAVCIS:CSI16:1,2009-09-03T15:45:00Z,29.4012,-89.0355,10.0,28.696,11111222 
WAVCIS,ioos:station:WAVCIS:CSI16:1,2009-09-03T16:00:00Z,29.4012,-89.0355,10.0,28.724,11111222 
WAVCIS,ioos:station:WAVCIS:CSI16:1,2009-09-03T16:15:00Z,29.4012,-89.0355,10.0,28.749,11111222 
WAVCIS,ioos:station:WAVCIS:CSI16:1,2009-09-03T16:30:00Z,29.4012,-89.0355,10.0,28.764,11111222 
WAVCIS,ioos:station:WAVCIS:CSI16:1,2009-09-03T16:45:00Z,29.4012,-89.0355,10.0,28.775,11111222 
WAVCIS,ioos:station:WAVCIS:CSI16:1,2009-09-03T17:00:00Z,29.4012,-89.0355,10.0,28.793,11111222 
WAVCIS,ioos:station:WAVCIS:CSI16:1,2009-09-03T17:15:00Z,29.4012,-89.0355,10.0,28.82,11111222 
WAVCIS,ioos:station:WAVCIS:CSI16:1,2009-09-03T17:30:00Z,29.4012,-89.0355,10.0,28.847,11111222 
WAVCIS,ioos:station:WAVCIS:CSI16:1,2009-09-03T17:45:00Z,29.4012,-89.0355,10.0,28.867,11111222 
WAVCIS,ioos:station:WAVCIS:CSI16:1,2009-09-03T18:00:00Z,29.4012,-89.0355,10.0,28.901,11111222 
WAVCIS,ioos:station:WAVCIS:CSI16:1,2009-09-03T18:15:00Z,29.4012,-89.0355,10.0,28.931,11111222 
WAVCIS,ioos:station:WAVCIS:CSI16:1,2009-09-03T18:30:00Z,29.4012,-89.0355,10.0,28.923,11111222 
WAVCIS,ioos:station:WAVCIS:CSI16:1,2009-09-03T18:45:00Z,29.4012,-89.0355,10.0,28.943,11111222 
WAVCIS,ioos:station:WAVCIS:CSI16:1,2009-09-03T19:00:00Z,29.4012,-89.0355,10.0,28.94,11111222 
WAVCIS,ioos:station:WAVCIS:CSI16:1,2009-09-03T19:15:00Z,29.4012,-89.0355,10.0,28.94,11111222 
WAVCIS,ioos:station:WAVCIS:CSI16:1,2009-09-03T19:30:00Z,29.4012,-89.0355,10.0,28.948,11111222 
WAVCIS,ioos:station:WAVCIS:CSI16:1,2009-09-03T19:45:00Z,29.4012,-89.0355,10.0,29.009,11111222 
WAVCIS,ioos:station:WAVCIS:CSI16:1,2009-09-03T20:00:00Z,29.4012,-89.0355,10.0,29.053,11111222 
WAVCIS,ioos:station:WAVCIS:CSI16:1,2009-09-03T20:15:00Z,29.4012,-89.0355,10.0,29.102,11111222 
WAVCIS,ioos:station:WAVCIS:CSI16:1,2009-09-03T20:30:00Z,29.4012,-89.0355,10.0,29.11,11111222 
WAVCIS,ioos:station:WAVCIS:CSI16:1,2009-09-03T20:45:00Z,29.4012,-89.0355,10.0,29.137,11111222 
WAVCIS,ioos:station:WAVCIS:CSI16:1,2009-09-03T21:00:00Z,29.4012,-89.0355,10.0,29.111,11111222 
WAVCIS,ioos:station:WAVCIS:CSI16:1,2009-09-03T21:15:00Z,29.4012,-89.0355,10.0,29.013,11111222 
WAVCIS,ioos:station:WAVCIS:CSI16:1,2009-09-03T21:30:00Z,29.4012,-89.0355,10.0,28.986,11111222 
WAVCIS,ioos:station:WAVCIS:CSI16:1,2009-09-03T21:45:00Z,29.4012,-89.0355,10.0,28.929,11111222 
WAVCIS,ioos:station:WAVCIS:CSI16:1,2009-09-03T22:00:00Z,29.4012,-89.0355,10.0,28.91,11111222 
WAVCIS,ioos:station:WAVCIS:CSI16:1,2009-09-03T22:15:00Z,29.4012,-89.0355,10.0,28.907,11111222 
WAVCIS,ioos:station:WAVCIS:CSI16:1,2009-09-03T22:30:00Z,29.4012,-89.0355,10.0,28.917,11111222 
WAVCIS,ioos:station:WAVCIS:CSI16:1,2009-09-03T22:45:00Z,29.4012,-89.0355,10.0,28.923,11111222 
WAVCIS,ioos:station:WAVCIS:CSI16:1,2009-09-03T23:00:00Z,29.4012,-89.0355,10.0,28.903,11111222 
WAVCIS,ioos:station:WAVCIS:CSI16:1,2009-09-03T23:15:00Z,29.4012,-89.0355,10.0,28.928,11111222 
WAVCIS,ioos:station:WAVCIS:CSI16:1,2009-09-03T23:30:00Z,29.4012,-89.0355,10.0,28.941,11111222 
WAVCIS,ioos:station:WAVCIS:CSI16:1,2009-09-03T23:45:00Z,29.4012,-89.0355,10.0,28.968,11111222 
WAVCIS,ioos:station:WAVCIS:CSI16:1,2009-09-04T00:00:00Z,29.4012,-89.0355,10.0,28.874,11111222 
WAVCIS,ioos:station:WAVCIS:CSI16:1,2009-09-04T00:15:00Z,29.4012,-89.0355,10.0,28.865,11111222 
WAVCIS,ioos:station:WAVCIS:CSI16:1,2009-09-04T00:30:00Z,29.4012,-89.0355,10.0,28.856,11111222 
WAVCIS,ioos:station:WAVCIS:CSI16:1,2009-09-04T00:45:00Z,29.4012,-89.0355,10.0,28.736,11111222 
WAVCIS,ioos:station:WAVCIS:CSI16:1,2009-09-04T01:00:00Z,29.4012,-89.0355,10.0,28.727,11111222 
WAVCIS,ioos:station:WAVCIS:CSI16:1,2009-09-04T01:15:00Z,29.4012,-89.0355,10.0,28.724,11111222 
WAVCIS,ioos:station:WAVCIS:CSI16:1,2009-09-04T01:30:00Z,29.4012,-89.0355,10.0,28.776,11111222 
WAVCIS,ioos:station:WAVCIS:CSI16:1,2009-09-04T01:45:00Z,29.4012,-89.0355,10.0,28.792,11111222 
WAVCIS,ioos:station:WAVCIS:CSI16:1,2009-09-04T02:00:00Z,29.4012,-89.0355,10.0,28.816,11111222 
WAVCIS,ioos:station:WAVCIS:CSI16:1,2009-09-04T02:15:00Z,29.4012,-89.0355,10.0,28.879,11111222 
WAVCIS,ioos:station:WAVCIS:CSI16:1,2009-09-04T02:30:00Z,29.4012,-89.0355,10.0,28.885,11111222 
WAVCIS,ioos:station:WAVCIS:CSI16:1,2009-09-04T02:45:00Z,29.4012,-89.0355,10.0,28.887,11111222 
WAVCIS,ioos:station:WAVCIS:CSI16:1,2009-09-04T03:00:00Z,29.4012,-89.0355,10.0,28.888,11111222 
WAVCIS,ioos:station:WAVCIS:CSI16:1,2009-09-04T03:15:00Z,29.4012,-89.0355,10.0,28.876,11111222 
WAVCIS,ioos:station:WAVCIS:CSI16:1,2009-09-04T03:30:00Z,29.4012,-89.0355,10.0,28.862,11111222 
WAVCIS,ioos:station:WAVCIS:CSI16:1,2009-09-04T03:45:00Z,29.4012,-89.0355,10.0,28.865,11111222 
WAVCIS,ioos:station:WAVCIS:CSI16:1,2009-09-04T04:00:00Z,29.4012,-89.0355,10.0,28.848,11111222 
WAVCIS,ioos:station:WAVCIS:CSI16:1,2009-09-04T04:15:00Z,29.4012,-89.0355,10.0,28.814,11111222 
WAVCIS,ioos:station:WAVCIS:CSI16:1,2009-09-04T04:30:00Z,29.4012,-89.0355,10.0,28.807,11111222 
WAVCIS,ioos:station:WAVCIS:CSI16:1,2009-09-04T04:45:00Z,29.4012,-89.0355,10.0,28.795,11111222 
WAVCIS,ioos:station:WAVCIS:CSI16:1,2009-09-04T05:00:00Z,29.4012,-89.0355,10.0,28.792,11111222 
WAVCIS,ioos:station:WAVCIS:CSI16:1,2009-09-04T05:15:00Z,29.4012,-89.0355,10.0,28.791,11111222 
WAVCIS,ioos:station:WAVCIS:CSI16:1,2009-09-04T05:30:00Z,29.4012,-89.0355,10.0,28.753,11111222 
WAVCIS,ioos:station:WAVCIS:CSI16:1,2009-09-04T05:45:00Z,29.4012,-89.0355,10.0,28.74,11111222 
WAVCIS,ioos:station:WAVCIS:CSI16:1,2009-09-04T06:00:00Z,29.4012,-89.0355,10.0,28.752,11111222 
WAVCIS,ioos:station:WAVCIS:CSI16:1,2009-09-04T06:15:00Z,29.4012,-89.0355,10.0,28.758,11111222 
WAVCIS,ioos:station:WAVCIS:CSI16:1,2009-09-04T06:30:00Z,29.4012,-89.0355,10.0,28.746,11111222 
WAVCIS,ioos:station:WAVCIS:CSI16:1,2009-09-04T06:45:00Z,29.4012,-89.0355,10.0,28.737,11111222 
WAVCIS,ioos:station:WAVCIS:CSI16:1,2009-09-04T07:00:00Z,29.4012,-89.0355,10.0,28.732,11111222 
WAVCIS,ioos:station:WAVCIS:CSI16:1,2009-09-04T07:15:00Z,29.4012,-89.0355,10.0,28.7,11111222 
WAVCIS,ioos:station:WAVCIS:CSI16:1,2009-09-04T07:30:00Z,29.4012,-89.0355,10.0,28.672,11111222 
WAVCIS,ioos:station:WAVCIS:CSI16:1,2009-09-04T07:45:00Z,29.4012,-89.0355,10.0,28.64,11111222 
WAVCIS,ioos:station:WAVCIS:CSI16:1,2009-09-04T08:00:00Z,29.4012,-89.0355,10.0,28.584,11111222 
WAVCIS,ioos:station:WAVCIS:CSI16:1,2009-09-04T08:15:00Z,29.4012,-89.0355,10.0,28.616,11111222 
WAVCIS,ioos:station:WAVCIS:CSI16:1,2009-09-04T08:30:00Z,29.4012,-89.0355,10.0,28.654,11111222 
WAVCIS,ioos:station:WAVCIS:CSI16:1,2009-09-04T08:45:00Z,29.4012,-89.0355,10.0,28.57,11111222 
WAVCIS,ioos:station:WAVCIS:CSI16:1,2009-09-04T09:00:00Z,29.4012,-89.0355,10.0,28.63,11111222 
WAVCIS,ioos:station:WAVCIS:CSI16:1,2009-09-04T09:15:00Z,29.4012,-89.0355,10.0,28.58,11111222 
WAVCIS,ioos:station:WAVCIS:CSI16:1,2009-09-04T09:30:00Z,29.4012,-89.0355,10.0,28.613,11111222 
WAVCIS,ioos:station:WAVCIS:CSI16:1,2009-09-04T09:45:00Z,29.4012,-89.0355,10.0,28.517,11111222 
WAVCIS,ioos:station:WAVCIS:CSI16:1,2009-09-04T10:00:00Z,29.4012,-89.0355,10.0,28.493,11111222 
WAVCIS,ioos:station:WAVCIS:CSI16:1,2009-09-04T10:15:00Z,29.4012,-89.0355,10.0,28.532,11111222 
WAVCIS,ioos:station:WAVCIS:CSI16:1,2009-09-04T10:30:00Z,29.4012,-89.0355,10.0,28.508,11111222 
WAVCIS,ioos:station:WAVCIS:CSI16:1,2009-09-04T10:45:00Z,29.4012,-89.0355,10.0,28.476,11111222 
WAVCIS,ioos:station:WAVCIS:CSI16:1,2009-09-04T11:00:00Z,29.4012,-89.0355,10.0,28.497,11111222 
WAVCIS,ioos:station:WAVCIS:CSI16:1,2009-09-04T11:15:00Z,29.4012,-89.0355,10.0,28.401,11111222 
WAVCIS,ioos:station:WAVCIS:CSI16:1,2009-09-04T11:30:00Z,29.4012,-89.0355,10.0,28.338,11111222 
WAVCIS,ioos:station:WAVCIS:CSI16:1,2009-09-04T11:45:00Z,29.4012,-89.0355,10.0,28.377,11111222 